Weather reports worldwide

Advertisment
Gourette, France (7775): temperature & dewpoint: 10.01.2021 06:00:00 - 16.01.2021 06:00:00 (CET)Gourette, France (7775): wind speed & gusts: 10.01.2021 06:00:00 - 16.01.2021 06:00:00 (CET)Gourette, France (7775): wind direction: 10.01.2021 06:00:00 - 16.01.2021 06:00:00 (CET)Gourette, France (7775): reduced air pressure: 10.01.2021 06:00:00 - 16.01.2021 06:00:00 (CET)Gourette, France (7775): visibility: 10.01.2021 06:00:00 - 16.01.2021 06:00:00 (CET)Gourette, France (7775): precipitation: 10.01.2021 06:00:00 - 16.01.2021 06:00:00 (CET)
Date & Time tt [°C] td [°C] ff [km/h] ff [kn] fx [km/h] fx [kn] dd ppp [hPa] vv [km] rr [mm]
16.01.2021 06:00:00 7,0 -0,2 24 13 36 19 NE 1018,8 - 0,0
16.01.2021 05:00:00 7,4 1,5 13 7 37 20 NNE 1018,5 - 0,0
16.01.2021 04:00:00 7,7 0,2 29 16 44 24 NNE 1017,9 - 0,0
16.01.2021 03:00:00 8,4 0,6 31 17 51 28 NE 1017,6 - 0,0
16.01.2021 02:00:00 8,4 1,3 33 18 45 25 NE 1017,1 - 0,0
16.01.2021 01:00:00 8,9 2,2 30 16 46 25 NE 1016,4 - 0,0
16.01.2021 00:00:00 9,3 3,7 27 15 41 22 NNE 1016,1 - 0,0
15.01.2021 23:00:00 9,2 4,8 16 9 31 17 N 1015,7 - 0,0
15.01.2021 22:00:00 9,4 4,8 20 11 31 17 N 1015,3 15 0,0
15.01.2021 21:00:00 8,5 4,5 18 10 27 15 NNW 1014,5 - 0,0
15.01.2021 20:00:00 8,3 3,3 13 7 23 13 NNW 1014,0 - 0,0
15.01.2021 19:00:00 8,4 4,4 16 9 27 14 NNW 1013,7 - 0,0
15.01.2021 18:00:00 8,2 5,5 20 11 27 15 NNW 1013,1 - 0,0
15.01.2021 17:00:00 9,5 6,0 20 11 35 19 N 1013,0 - 0,0
15.01.2021 16:00:00 11,2 6,9 20 11 43 23 N 1012,4 15 0,0
15.01.2021 15:00:00 12,7 7,4 29 16 45 24 N 1012,0 - 0,0
15.01.2021 14:00:00 10,7 7,2 19 10 46 25 N 1012,0 - 0,0
15.01.2021 13:00:00 10,0 6,3 19 10 46 25 N 1012,3 12 0,0
15.01.2021 12:00:00 10,8 8,0 24 13 42 23 N 1012,3 - 0,0
15.01.2021 11:00:00 10,1 7,9 29 16 49 26 N 1012,6 - 0,0
15.01.2021 10:00:00 8,3 7,2 25 14 48 26 N 1012,3 - 0,0
15.01.2021 09:00:00 7,9 6,5 18 10 26 14 NNW 1011,4 - 0,0
15.01.2021 08:00:00 8,2 7,0 19 10 33 18 NW 1010,4 - 0,0
15.01.2021 07:00:00 9,0 8,2 26 14 31 17 NNW 1009,8 12 0,0
15.01.2021 06:00:00 9,9 9,0 13 7 26 14 N 1009,2 - 0,0
15.01.2021 05:00:00 10,7 7,0 4 2 23 12 SSW 1009,3 - 0,0
15.01.2021 04:00:00 11,4 6,9 16 9 27 15 SW 1010,1 - 0,0
15.01.2021 03:00:00 11,1 7,0 22 12 26 14 SW 1010,3 - 0,0
15.01.2021 02:00:00 11,2 6,9 13 7 19 10 WSW 1010,6 - 0,0
15.01.2021 01:00:00 10,5 6,6 18 10 23 12 SW 1011,2 - 0,0
15.01.2021 00:00:00 10,0 6,9 16 9 19 10 SW 1011,3 - 0,0
14.01.2021 23:00:00 11,0 7,5 14 8 19 10 SW 1012,0 - 0,0
14.01.2021 22:00:00 11,5 8,2 16 9 23 13 SW 1011,4 - 0,0
14.01.2021 21:00:00 11,6 8,3 18 10 24 13 SW 1011,1 - 0,0
14.01.2021 20:00:00 11,5 8,5 18 10 23 13 SW 1010,8 - 0,0
14.01.2021 19:00:00 11,5 8,7 11 6 15 8 SW 1010,4 15 0,0
14.01.2021 18:00:00 12,2 8,5 6 4 10 5 SSE 1010,3 - 0,0
14.01.2021 17:00:00 12,4 8,7 8 4 15 8 E 1010,0 - 0,0
14.01.2021 16:00:00 13,2 8,9 11 6 21 11 NE 1009,5 - 0,0
14.01.2021 15:00:00 14,0 8,8 14 7 20 11 ENE 1009,0 - 0,0
14.01.2021 14:00:00 14,1 8,7 13 7 21 12 ENE 1008,8 - 0,0
14.01.2021 13:00:00 13,9 8,1 12 7 27 14 ESE 1009,1 - 0,0
14.01.2021 12:00:00 15,0 8,0 20 11 29 16 S 1009,1 - 0,0
14.01.2021 11:00:00 14,5 7,5 11 6 18 10 S 1011,0 - 0,0
14.01.2021 10:00:00 13,7 8,7 8 5 18 10 SSW 1011,5 - 0,0
14.01.2021 09:00:00 9,7 4,9 16 9 18 10 SW 1011,0 - 0,0
14.01.2021 08:00:00 10,6 7,1 5 3 19 10 NW 1011,5 - 0,0
14.01.2021 07:00:00 9,1 4,5 16 9 20 11 NNW 1011,8 15 0,0
14.01.2021 06:00:00 10,3 4,0 9 5 14 8 NNW 1011,5 - 0,0
14.01.2021 05:00:00 10,8 5,7 2 1 11 6 SSW 1011,4 - 0,0
14.01.2021 04:00:00 9,4 4,8 10 5 26 14 WSW 1012,4 - 0,0
14.01.2021 03:00:00 8,3 3,1 23 12 26 14 SW 1012,9 - 0,0
14.01.2021 02:00:00 8,6 3,0 20 11 28 15 SW 1014,0 - 0,0
14.01.2021 01:00:00 8,4 2,6 21 11 26 14 SW 1014,4 15 0,0
14.01.2021 00:00:00 8,4 2,4 19 10 24 13 SW 1015,0 - 0,0
13.01.2021 23:00:00 8,1 2,7 17 9 25 14 SW 1015,4 - 0,0
13.01.2021 22:00:00 6,5 2,6 19 10 24 13 SW 1015,4 - 0,0
13.01.2021 21:00:00 7,4 3,8 21 11 26 14 SSW 1015,8 - 0,0
13.01.2021 20:00:00 9,2 5,4 11 6 16 8 WSW 1015,8 - 0,0
13.01.2021 19:00:00 8,7 5,4 6 3 11 6 SW 1015,9 15 0,0
13.01.2021 18:00:00 10,1 6,1 2 1 16 9 S 1015,6 - 0,0
13.01.2021 17:00:00 10,8 6,5 9 5 16 8 S 1015,4 - 0,0
13.01.2021 16:00:00 12,5 6,3 5 3 21 11 E 1015,1 - 0,0
13.01.2021 15:00:00 12,9 6,9 14 7 23 12 SSE 1014,5 - 0,0
13.01.2021 14:00:00 13,3 6,4 13 7 24 13 SSE 1014,6 - 0,0
13.01.2021 13:00:00 13,4 6,7 15 8 23 12 SE 1015,3 - 0,0
13.01.2021 12:00:00 13,6 6,2 13 7 25 13 S 1015,8 - 0,0
13.01.2021 11:00:00 12,4 5,8 19 10 27 15 S 1016,1 - 0,0
13.01.2021 10:00:00 11,5 4,9 12 7 19 11 SSW 1016,0 20 0,0
13.01.2021 09:00:00 7,9 2,6 15 8 21 11 SW 1015,5 - 0,0
13.01.2021 08:00:00 6,1 2,0 19 10 20 11 SW 1014,6 - 0,0
13.01.2021 07:00:00 6,6 1,9 15 8 18 10 SW 1014,6 15 0,0
13.01.2021 06:00:00 6,5 1,2 15 8 17 9 WSW 1014,3 - 0,0
13.01.2021 05:00:00 7,7 1,1 9 5 17 9 WSW 1014,3 - 0,0
13.01.2021 04:00:00 6,6 0,7 16 8 23 12 SW 1013,8 - 0,0
13.01.2021 03:00:00 7,4 0,8 10 6 13 7 WSW 1014,0 - 0,0
13.01.2021 02:00:00 8,0 0,5 10 5 13 7 WSW 1014,0 - 0,0
13.01.2021 01:00:00 7,4 0,1 9 5 11 6 WSW 1014,2 - 0,0
13.01.2021 00:00:00 8,7 0,2 9 5 14 8 NW 1014,5 - 0,0
12.01.2021 23:00:00 8,7 1,1 8 4 18 10 NW 1014,4 - 0,0
12.01.2021 22:00:00 7,4 2,1 13 7 18 10 WSW 1014,7 - 0,0
12.01.2021 21:00:00 6,5 1,8 18 10 23 12 SW 1014,6 - 0,0
12.01.2021 20:00:00 6,6 1,3 19 10 25 13 SW 1014,7 - 0,0
12.01.2021 19:00:00 6,1 1,0 21 11 25 14 SW 1014,8 - 0,0
12.01.2021 18:00:00 6,2 1,7 19 11 23 12 SW 1015,0 - 0,0
12.01.2021 17:00:00 8,2 2,2 16 9 24 13 SSW 1015,2 - 0,0
12.01.2021 16:00:00 10,8 1,9 18 10 24 13 S 1015,3 - 0,0
12.01.2021 15:00:00 11,3 1,5 6 3 14 8 E 1015,9 - 0,0
12.01.2021 14:00:00 11,6 0,9 8 4 19 11 NE 1015,9 - 0,0
12.01.2021 13:00:00 12,7 1,7 12 7 26 14 NNE 1016,3 - 0,0
12.01.2021 12:00:00 12,2 1,5 17 9 31 17 N 1017,0 - 0,0
12.01.2021 11:00:00 11,3 1,8 20 11 34 18 N 1017,4 - 0,0
12.01.2021 10:00:00 9,8 0,7 15 8 29 16 N 1017,0 18 0,0
12.01.2021 09:00:00 6,9 -0,6 14 7 27 15 NNW 1016,6 - 0,0
12.01.2021 08:00:00 5,8 -0,5 16 9 32 17 NNW 1016,4 - 0,0
12.01.2021 07:00:00 5,9 -1,1 15 8 34 18 N 1016,3 - 0,0
12.01.2021 06:00:00 6,4 -1,3 16 9 34 18 NNW 1016,3 - 0,0
12.01.2021 05:00:00 5,6 -1,8 18 10 34 18 NW 1016,2 - 0,0
12.01.2021 04:00:00 5,3 -2,3 20 11 35 19 NNW 1016,4 18 0,0
12.01.2021 03:00:00 5,0 -1,9 18 10 33 18 NW 1016,9 - 0,0
12.01.2021 02:00:00 5,2 -1,3 22 12 36 19 NNW 1016,8 - 0,0
12.01.2021 01:00:00 5,7 -1,2 22 12 39 21 NNW 1016,7 - 0,0
12.01.2021 00:00:00 5,7 -0,8 21 11 32 18 NNW 1017,0 - 0,0
11.01.2021 23:00:00 6,1 -0,2 21 11 35 19 NNW 1017,1 - 0,0
11.01.2021 22:00:00 6,2 -0,3 21 12 31 17 NNW 1017,2 18 0,0
11.01.2021 21:00:00 5,4 -1,3 19 10 30 16 NNW 1017,1 - 0,0
11.01.2021 20:00:00 5,7 -1,5 22 12 33 18 NNW 1016,6 - 0,0
11.01.2021 19:00:00 6,1 -1,1 21 11 31 17 NNW 1016,3 18 0,0
11.01.2021 18:00:00 6,2 -1,2 20 11 32 17 NNW 1016,1 - 0,0
11.01.2021 17:00:00 6,8 -0,9 21 12 48 26 NNW 1016,3 - 0,0
11.01.2021 16:00:00 8,2 -0,8 28 15 51 28 N 1016,0 18 0,0
11.01.2021 15:00:00 9,4 0,0 25 13 45 24 N 1015,4 - 0,2
11.01.2021 14:00:00 6,8 -0,2 23 12 39 21 N 1015,5 - 0,0
11.01.2021 13:00:00 7,4 -0,6 26 14 44 24 N 1016,0 - 0,0
11.01.2021 12:00:00 7,8 0,7 22 12 46 25 N 1016,6 - 0,0
11.01.2021 11:00:00 7,7 0,9 29 15 45 24 NNW 1017,1 - 0,0
11.01.2021 10:00:00 7,1 1,0 27 15 50 27 NNW 1016,6 15 0,0
11.01.2021 09:00:00 6,8 0,5 23 13 39 21 NNW 1015,6 - 0,0
11.01.2021 08:00:00 6,7 0,4 21 12 40 22 NNW 1015,0 - 0,0
11.01.2021 07:00:00 6,8 0,7 23 12 43 23 NNW 1014,4 - 0,0
11.01.2021 06:00:00 6,9 1,6 22 12 39 21 NNW 1014,0 - 0,0
11.01.2021 05:00:00 6,9 1,4 23 13 42 23 NNW 1013,9 - 0,0
11.01.2021 04:00:00 6,7 1,4 23 12 50 27 NNW 1013,6 12 0,0
11.01.2021 03:00:00 6,6 1,7 27 14 45 24 N 1014,0 - 0,0
11.01.2021 02:00:00 7,2 2,3 24 13 44 24 NNW 1013,7 - 0,0
11.01.2021 01:00:00 7,5 2,6 24 13 38 21 N 1013,7 - 0,2
11.01.2021 00:00:00 7,7 3,2 24 13 43 23 NNW 1013,6 - 0,0
10.01.2021 23:00:00 7,6 3,3 24 13 39 21 NNW 1013,4 - 0,0
10.01.2021 22:00:00 7,3 3,7 22 12 39 21 NNW 1013,2 12 0,0
10.01.2021 21:00:00 7,6 3,6 25 13 45 24 NNW 1012,7 - 0,2
10.01.2021 20:00:00 7,8 4,0 28 15 48 26 NNW 1012,1 - 0,0
10.01.2021 19:00:00 7,6 4,7 31 17 59 32 NNW 1011,6 12 0,0
10.01.2021 18:00:00 7,5 5,1 29 16 48 26 NNW 1011,0 - 0,2
10.01.2021 17:00:00 7,4 5,4 27 15 48 26 N 1010,7 - 0,0
10.01.2021 16:00:00 7,7 5,5 28 15 56 31 N 1010,2 - 0,2
10.01.2021 15:00:00 8,1 5,7 29 16 53 29 N 1009,7 - 0,2
10.01.2021 14:00:00 7,8 5,8 29 15 50 27 N 1009,6 - 0,2
10.01.2021 13:00:00 8,2 6,2 29 15 54 29 N 1009,9 - 0,2
10.01.2021 12:00:00 8,5 6,3 31 17 51 28 N 1010,3 - 0,2
10.01.2021 11:00:00 8,6 7,1 23 12 38 21 N 1010,8 - 0,2
10.01.2021 10:00:00 7,5 6,6 23 12 39 21 N 1010,8 12 0,4
10.01.2021 09:00:00 7,5 6,8 20 11 32 18 N 1010,2 - 0,2
10.01.2021 08:00:00 7,3 6,6 16 9 31 17 NNW 1009,8 - 0,4
10.01.2021 07:00:00 7,3 6,6 20 11 30 16 N 1010,0 12 0,4
10.01.2021 06:00:00 7,0 6,1 18 10 26 14 NNW 1009,8 - 0,4

tt = temperature
td = dewpoint
ff = wind speed
fx = gusts
dd = wind direction
ppp = reduced air pressure
vv = visibility
rr = precipitation

Next stations